Baku airport (UBBB)

baku-airport

Baku International Airport

Heydar Aliyev International Airport is the main international airport in Azerbaijan located 20 km (12 mi) northeast of the capital Baku. The airport is the home of Azerbaijan Airlines, the national flag carrier. It is the busiest airport in Azerbaijan and of the Caucasus.

ICAO: UBBB, IATA: GYD

Charts: Jeppesen

Sceneries: freeware demos w. reduced resolution

 fs9     fsx     Prepar

payware: http://www.drzewiecki-design.net/

METAR:

UBBB 172230Z 33009KT CAVOK 24/19 Q1005 R88/CLRD// NOSIG

TAF AMD TAF AMD UBBB 171754Z 1718/1818 33012KT 9999 FEW050CB SCT100 TX32/1810Z TN20/1801Z PROB40 TEMPO 1718/1724 -TSRA TEMPO 1800/1806 SCT012 TEMPO 1806/1816 36010KT